Highgate, VT

3:11 PM EST on November 22, 2019 (GMT -0500)
Franklin County State

Weather History for KFSO - September, 2019

Change the Weather History Date:

Saturday, September 14, 2019

  Actual Average (WUND) Record (WUND)
Temperature  
Mean Temperature 66 °F -  
Max Temperature 72 °F - - (-1)
Min Temperature 59 °F - - (-1)
Growing Degree Days 16 (Base 50)    
Moisture  
Dew Point 55 °F    
Average Humidity 69    
Maximum Humidity 84    
Minimum Humidity 52    
Precipitation  
Precipitation 0.00 in - - ()
Sea Level Pressure  
Sea Level Pressure 30.10 in    
Wind  
Wind Speed 15 mph (South)    
Max Wind Speed 23 mph    
Max Gust Speed 37 mph    
Visibility 10 miles    
Events Rain    
Averages and records for this station are not official NWS values.
T = Trace of Precipitation, MM = Missing Value Source: NWS Daily Summary

Daily Weather History Graph

Daily Weather History Graph

Search for Another Location

Airport or City:

Astronomy

Sep. 14, 2019 Rise Set
Actual Time 6:29 AM EDT 7:05 PM EDT
Civil Twilight 6:00 AM EDT 7:35 PM EDT
Nautical Twilight 5:25 AM EDT 8:09 PM EDT
Astronomical Twilight 4:48 AM EDT 8:46 PM EDT
Moon 7:45 PM EDT (9/14) 6:38 AM EDT (9/14)
Length of Visible Light 13h 34m
Length of Day
12h 35m
Full, 100% of the Moon is Illuminated
Sep 14
Full
Sep 21
Last Quarter
Sep 28
New
Oct 5
First Quarter
Oct 13
Full

Hourly Weather History & Observations

Time (EDT) Temp. Dew Point Humidity Pressure Visibility Wind Dir Wind Speed Gust Speed Precip Events Conditions
12:15 AM 64.6 °F 46.4 °F 52% 30.21 in 10.0 mi SSE 18.4 mph 24.2 mph N/A   Clear
12:36 AM 64.4 °F 46.8 °F 53% 30.21 in 10.0 mi South 19.6 mph 28.8 mph N/A   Clear
12:56 AM 64.4 °F 46.9 °F 53% 30.19 in 10.0 mi South 15.0 mph 28.8 mph N/A   Clear
1:15 AM 64.4 °F 47.7 °F 55% 30.19 in 10.0 mi South 20.7 mph 29.9 mph N/A   Clear
1:35 AM 64.6 °F 48.4 °F 56% 30.19 in 10.0 mi South 17.3 mph 35.7 mph N/A   Clear
1:56 AM 64.4 °F 48.2 °F 56% 30.17 in 10.0 mi South 23.0 mph 36.8 mph N/A   Mostly Cloudy
2:15 AM 64.4 °F 47.5 °F 54% 30.18 in 10.0 mi South 16.1 mph 34.5 mph N/A   Overcast
2:35 AM 63.9 °F 47.7 °F 56% 30.17 in 10.0 mi South 21.9 mph 33.4 mph N/A   Overcast
2:55 AM 63.5 °F 47.8 °F 57% 30.16 in 10.0 mi South 13.8 mph 32.2 mph N/A   Overcast
3:16 AM 63.3 °F 48.2 °F 58% 30.16 in 10.0 mi South 18.4 mph 32.2 mph N/A   Overcast
3:35 AM 63.1 °F 48.2 °F 58% 30.16 in 10.0 mi South 20.7 mph 31.1 mph N/A   Overcast
3:56 AM 62.8 °F 48.6 °F 60% 30.15 in 10.0 mi South 20.7 mph 34.5 mph N/A   Overcast
4:15 AM 62.6 °F 48.6 °F 60% 30.16 in 10.0 mi South 16.1 mph 24.2 mph N/A   Mostly Cloudy
4:36 AM 62.6 °F 48.0 °F 59% 30.14 in 10.0 mi South 15.0 mph 28.8 mph N/A   Mostly Cloudy
4:55 AM 62.2 °F 47.3 °F 58% 30.15 in 10.0 mi South 16.1 mph 27.6 mph N/A   Mostly Cloudy
5:16 AM 62.1 °F 46.6 °F 57% 30.14 in 10.0 mi South 11.5 mph 24.2 mph N/A   Overcast
5:36 AM 62.1 °F 46.8 °F 57% 30.14 in 10.0 mi South 20.7 mph 29.9 mph N/A   Overcast
5:55 AM 61.7 °F 46.9 °F 58% 30.14 in 10.0 mi South 18.4 mph 31.1 mph N/A   Light Drizzle
6:16 AM 60.1 °F 49.5 °F 68% 30.14 in 10.0 mi South 15.0 mph 24.2 mph N/A Rain Light Rain
6:35 AM 59.5 °F 50.0 °F 71% 30.14 in 10.0 mi South 13.8 mph 24.2 mph N/A   Light Drizzle
6:55 AM 60.4 °F 49.6 °F 68% 30.13 in 10.0 mi South 15.0 mph 26.5 mph N/A Rain Light Rain
7:15 AM 60.1 °F 50.7 °F 71% 30.13 in 10.0 mi South 18.4 mph 28.8 mph N/A   Drizzle
7:35 AM 59.5 °F 50.9 °F 73% 30.12 in 10.0 mi South 17.3 mph 28.8 mph N/A   Overcast
7:56 AM 60.3 °F 50.9 °F 71% 30.11 in 10.0 mi South 12.7 mph 25.3 mph N/A   Overcast
8:16 AM 60.8 °F 50.9 °F 70% 30.12 in 10.0 mi South 15.0 mph 24.2 mph N/A   Overcast
8:35 AM 61.0 °F 51.8 °F 72% 30.11 in 10.0 mi South 19.6 mph 29.9 mph N/A Rain Rain
8:56 AM 61.2 °F 52.0 °F 72% 30.11 in 10.0 mi South 18.4 mph 32.2 mph N/A   Overcast
9:15 AM 61.7 °F 52.3 °F 71% 30.11 in 10.0 mi South 16.1 mph 24.2 mph N/A   Overcast
9:35 AM 62.1 °F 52.7 °F 71% 30.12 in 10.0 mi South 13.8 mph 26.5 mph N/A   Overcast
9:55 AM 61.9 °F 53.4 °F 74% 30.12 in 10.0 mi South 16.1 mph 31.1 mph N/A   Overcast
10:15 AM 62.6 °F 53.6 °F 72% 30.12 in 10.0 mi South 15.0 mph 28.8 mph N/A   Overcast
10:36 AM 62.8 °F 54.0 °F 73% 30.12 in 10.0 mi South 15.0 mph 21.9 mph N/A   Overcast
10:56 AM 63.5 °F 54.3 °F 72% 30.11 in 10.0 mi South 18.4 mph 23.0 mph N/A   Overcast
11:16 AM 63.9 °F 54.7 °F 72% 30.10 in 10.0 mi South 13.8 mph 27.6 mph N/A   Overcast
11:35 AM 64.9 °F 55.6 °F 72% 30.10 in 10.0 mi South 15.0 mph 28.8 mph N/A   Overcast
11:56 AM 65.3 °F 55.8 °F 71% 30.10 in 10.0 mi South 13.8 mph 28.8 mph N/A   Overcast
12:16 PM 66.2 °F 56.3 °F 70% 30.09 in 10.0 mi South 15.0 mph 25.3 mph N/A   Overcast
12:36 PM 66.0 °F 56.7 °F 72% 30.09 in 10.0 mi South 16.1 mph 24.2 mph N/A   Overcast
12:55 PM 66.2 °F 57.4 °F 73% 30.08 in 10.0 mi South 8.1 mph 19.6 mph N/A   Overcast
1:15 PM 66.2 °F 57.6 °F 74% 30.08 in 10.0 mi South 12.7 mph 19.6 mph N/A   Overcast
1:35 PM 67.8 °F 58.1 °F 71% 30.07 in 10.0 mi South 15.0 mph 21.9 mph N/A   Overcast
1:56 PM 68.9 °F 58.3 °F 69% 30.06 in 10.0 mi South 15.0 mph 25.3 mph N/A   Overcast
2:15 PM 70.7 °F 59.0 °F 66% 30.05 in 10.0 mi South 13.8 mph 23.0 mph N/A   Mostly Cloudy
2:36 PM 72.5 °F 59.9 °F 64% 30.05 in 10.0 mi SSW 13.8 mph 20.7 mph N/A   Mostly Cloudy
2:55 PM 69.3 °F 59.0 °F 70% 30.05 in 10.0 mi South 15.0 mph 24.2 mph N/A   Overcast
3:16 PM 69.8 °F 59.5 °F 70% 30.04 in 10.0 mi South 17.3 mph 25.3 mph N/A   Overcast
3:35 PM 70.3 °F 59.7 °F 69% 30.03 in 10.0 mi South 13.8 mph 19.6 mph N/A   Overcast
3:55 PM 70.2 °F 60.1 °F 70% 30.03 in 10.0 mi South 12.7 mph 21.9 mph N/A   Overcast
4:16 PM 71.4 °F 60.6 °F 69% 30.03 in 10.0 mi South 10.4 mph 18.4 mph N/A   Mostly Cloudy
4:35 PM 70.3 °F 60.4 °F 71% 30.02 in 10.0 mi South 13.8 mph 23.0 mph N/A   Mostly Cloudy
4:56 PM 71.2 °F 60.8 °F 69% 30.02 in 10.0 mi South 12.7 mph 19.6 mph N/A   Mostly Cloudy
5:15 PM 70.0 °F 60.8 °F 73% 30.02 in 10.0 mi South 9.2 mph 21.9 mph N/A   Scattered Clouds
5:35 PM 69.8 °F 61.0 °F 73% 30.01 in 10.0 mi South 13.8 mph 19.6 mph N/A   Mostly Cloudy
5:55 PM 69.3 °F 61.0 °F 75% 30.02 in 10.0 mi South 12.7 mph 18.4 mph N/A   Overcast
6:15 PM 69.1 °F 61.0 °F 75% 30.02 in 10.0 mi South 10.4 mph 19.6 mph N/A   Overcast
6:36 PM 69.1 °F 61.0 °F 75% 30.03 in 10.0 mi SSW 6.9 mph - N/A   Overcast
6:55 PM 68.9 °F 61.0 °F 76% 30.03 in 10.0 mi SSW 6.9 mph 16.1 mph N/A   Overcast
7:15 PM 68.4 °F 61.0 °F 77% 30.04 in 10.0 mi South 9.2 mph - N/A   Overcast
7:36 PM 68.0 °F 61.2 °F 79% 30.05 in 10.0 mi SSW 4.6 mph - N/A   Mostly Cloudy
7:55 PM 68.0 °F 61.3 °F 79% 30.05 in 10.0 mi SSW 5.8 mph - N/A   Overcast
8:16 PM 68.0 °F 61.7 °F 80% 30.06 in 10.0 mi SSW 8.1 mph - N/A   Overcast
8:36 PM 67.8 °F 61.7 °F 81% 30.06 in 10.0 mi SSW 6.9 mph - N/A   Mostly Cloudy
8:55 PM 67.6 °F 62.1 °F 82% 30.07 in 10.0 mi SSW 9.2 mph - N/A   Overcast
9:16 PM 67.6 °F 61.7 °F 81% 30.07 in 10.0 mi SSW 5.8 mph - N/A   Overcast
9:35 PM 66.7 °F 61.7 °F 84% 30.07 in 10.0 mi SSW 4.6 mph - N/A   Mostly Cloudy
10:16 PM 66.2 °F 60.8 °F 83% 30.07 in 10.0 mi SSW 4.6 mph - N/A   Clear
10:36 PM 66.2 °F 60.8 °F 83% 30.08 in 10.0 mi SSW 4.6 mph - N/A   Mostly Cloudy
10:55 PM 66.2 °F 60.3 °F 81% 30.07 in 10.0 mi SSW 6.9 mph - N/A   Overcast
11:15 PM 66.6 °F 60.1 °F 80% 30.07 in 10.0 mi SSW 4.6 mph - N/A   Overcast
11:35 PM 66.6 °F 59.5 °F 78% 30.08 in 10.0 mi SW 6.9 mph - N/A   Overcast
11:56 PM 66.6 °F 59.9 °F 79% 30.08 in 10.0 mi SW 5.8 mph - N/A   Overcast